DECFD LMML-LICA

Flight info

Callsign DECFD
Flight time N/A
Altitude 4500
Route DCT
Aircraft P28B/L-SDE3/L

Departure

Time N/A
Airport Malta International Airport (LMML)

Arrival

Time 2026-04-23 17:56
Airport Lamezia Terme Sant'Eufemia International Airport (LICA)
Time Latitude Longitude Altitude Speed Heading
2026-04-23 16:06 36.35939 14.43879 4558 ft 108 kts
2026-04-23 16:07 36.36685 14.43977 4558 ft 108 kts
2026-04-23 16:07 36.37428 14.44074 4558 ft 108 kts
2026-04-23 16:07 36.38168 14.44170 4561 ft 109 kts
2026-04-23 16:07 36.38920 14.44268 4559 ft 108 kts
2026-04-23 16:08 36.39661 14.44365 4554 ft 107 kts
2026-04-23 16:08 36.40403 14.44461 4554 ft 107 kts
2026-04-23 16:08 36.41144 14.44558 4552 ft 107 kts
2026-04-23 16:08 36.41889 14.44655 4554 ft 108 kts
2026-04-23 16:09 36.42635 14.44752 4549 ft 107 kts
2026-04-23 16:09 36.43367 14.44848 4550 ft 105 kts
2026-04-23 16:09 36.44091 14.44942 4548 ft 104 kts
2026-04-23 16:09 36.44815 14.45037 4547 ft 104 kts
2026-04-23 16:10 36.45538 14.45130 4548 ft 104 kts
2026-04-23 16:10 36.46262 14.45225 4546 ft 104 kts
2026-04-23 16:10 36.46976 14.45318 4548 ft 104 kts
2026-04-23 16:10 36.47698 14.45412 4549 ft 104 kts
2026-04-23 16:11 36.48413 14.45505 4545 ft 103 kts
2026-04-23 16:11 36.49124 14.45598 4544 ft 103 kts
2026-04-23 16:11 36.49840 14.45691 4544 ft 103 kts
2026-04-23 16:11 36.50554 14.45784 4544 ft 103 kts
2026-04-23 16:12 36.51267 14.45877 4545 ft 103 kts
2026-04-23 16:12 36.51980 14.45970 4542 ft 103 kts
2026-04-23 16:12 36.52688 14.46063 4548 ft 102 kts
2026-04-23 16:12 36.53384 14.46154 4548 ft 102 kts
2026-04-23 16:13 36.54088 14.46246 4545 ft 101 kts
2026-04-23 16:13 36.55491 14.46429 4550 ft 103 kts
2026-04-23 16:13 36.56206 14.46523 4554 ft 103 kts
2026-04-23 16:14 36.56920 14.46616 4554 ft 104 kts
2026-04-23 16:14 36.57633 14.46710 4558 ft 102 kts
2026-04-23 16:14 36.58349 14.46803 4564 ft 106 kts
2026-04-23 16:14 36.59092 14.46901 4562 ft 107 kts
2026-04-23 16:15 36.59826 14.46997 4566 ft 106 kts
2026-04-23 16:15 36.60566 14.47094 4563 ft 108 kts
2026-04-23 16:15 36.61318 14.47192 4563 ft 109 kts
2026-04-23 16:15 36.62079 14.47292 4562 ft 111 kts
2026-04-23 16:16 36.62845 14.47392 4560 ft 110 kts
2026-04-23 16:16 36.63588 14.47490 4561 ft 107 kts
2026-04-23 16:16 36.64323 14.47586 4555 ft 105 kts
2026-04-23 16:16 36.65048 14.47681 4552 ft 105 kts
2026-04-23 16:17 36.65772 14.47776 4549 ft 104 kts
2026-04-23 16:17 36.66489 14.47870 4548 ft 103 kts
2026-04-23 16:17 36.67191 14.47962 4546 ft 100 kts
2026-04-23 16:17 36.67874 14.48051 4546 ft 97 kts
2026-04-23 16:18 36.68541 14.48138 4548 ft 95 kts
2026-04-23 16:18 36.69209 14.48226 4550 ft 98 kts
2026-04-23 16:18 36.69899 14.48316 4557 ft 103 kts
2026-04-23 16:18 36.70622 14.48411 4561 ft 106 kts
2026-04-23 16:19 36.71362 14.48509 4563 ft 108 kts
2026-04-23 16:19 36.72108 14.48607 4563 ft 107 kts
2026-04-23 16:19 36.72839 14.48703 4559 ft 105 kts
2026-04-23 16:19 36.73551 14.48796 4557 ft 104 kts
2026-04-23 16:20 36.74272 14.48891 4558 ft 105 kts
2026-04-23 16:20 36.75002 14.48987 4560 ft 106 kts
2026-04-23 16:20 36.75736 14.49084 4555 ft 105 kts
2026-04-23 16:20 36.76452 14.49178 4550 ft 101 kts
2026-04-23 16:21 36.77146 14.49269 4543 ft 99 kts
2026-04-23 16:21 36.77823 14.49357 4544 ft 97 kts
2026-04-23 16:21 36.78501 14.49446 4543 ft 99 kts
2026-04-23 16:21 36.79164 14.49672 4544 ft 100 kts 25°
2026-04-23 16:22 36.79767 14.50108 4545 ft 100 kts 24°
2026-04-23 16:22 36.80373 14.50533 4543 ft 99 kts 24°
2026-04-23 16:22 36.80973 14.50951 4543 ft 99 kts 24°
2026-04-23 16:22 36.81564 14.51365 4544 ft 99 kts 24°
2026-04-23 16:23 36.82165 14.51785 4544 ft 100 kts 24°
2026-04-23 16:23 36.82777 14.52212 4546 ft 101 kts 24°
2026-04-23 16:23 36.83396 14.52645 4547 ft 102 kts 24°
2026-04-23 16:23 36.84016 14.53079 4548 ft 102 kts 24°
2026-04-23 16:24 36.84637 14.53514 4548 ft 101 kts 24°
2026-04-23 16:24 36.85250 14.53943 4550 ft 102 kts 24°
2026-04-23 16:24 36.85872 14.54378 4550 ft 103 kts 24°
2026-04-23 16:24 36.86496 14.54815 4549 ft 102 kts 24°
2026-04-23 16:25 36.87113 14.55248 4546 ft 101 kts 25°
2026-04-23 16:25 36.87727 14.55677 4547 ft 101 kts 24°
2026-04-23 16:25 36.88341 14.56107 4545 ft 101 kts 25°
2026-04-23 16:25 36.88944 14.56530 4545 ft 100 kts 24°
2026-04-23 16:26 36.89555 14.56957 4545 ft 101 kts 24°
2026-04-23 16:26 36.90168 14.57388 4543 ft 101 kts 24°
2026-04-23 16:26 36.90774 14.57813 4542 ft 99 kts 24°
2026-04-23 16:26 36.91370 14.58230 4539 ft 98 kts 24°
2026-04-23 16:27 36.91966 14.58647 4541 ft 99 kts 24°
2026-04-23 16:27 36.92581 14.59078 4552 ft 103 kts 24°
2026-04-23 16:27 36.93218 14.59525 4558 ft 106 kts 25°
2026-04-23 16:27 36.93869 14.59982 4575 ft 109 kts 24°
2026-04-23 16:28 36.94524 14.60442 4791 ft 107 kts 23°
2026-04-23 16:28 36.95170 14.60896 4996 ft 105 kts 23°
2026-04-23 16:28 36.95794 14.61334 5187 ft 103 kts 23°
2026-04-23 16:28 36.96411 14.61767 5382 ft 101 kts 22°
2026-04-23 16:29 36.97025 14.62196 5544 ft 104 kts 22°
2026-04-23 16:29 36.97667 14.62647 5541 ft 106 kts 22°
2026-04-23 16:29 36.98310 14.63100 5540 ft 105 kts 22°
2026-04-23 16:29 36.98944 14.63546 5540 ft 104 kts 22°
2026-04-23 16:30 36.99575 14.63990 5541 ft 103 kts 22°
2026-04-23 16:30 37.00201 14.64430 5539 ft 103 kts 22°
2026-04-23 16:30 37.00824 14.64868 5542 ft 103 kts 22°
2026-04-23 16:30 37.01450 14.65308 5543 ft 104 kts 22°
2026-04-23 16:31 37.02075 14.65747 5546 ft 105 kts 22°
2026-04-23 16:31 37.02708 14.66193 5546 ft 104 kts 22°
2026-04-23 16:31 37.03339 14.66637 5545 ft 104 kts 22°
2026-04-23 16:31 37.03970 14.67081 5544 ft 104 kts 23°
2026-04-23 16:32 37.04605 14.67527 5544 ft 105 kts 24°
2026-04-23 16:32 37.05242 14.67976 5546 ft 105 kts 24°
2026-04-23 16:32 37.05881 14.68426 5546 ft 105 kts 24°
2026-04-23 16:32 37.06520 14.68875 5549 ft 106 kts 24°
2026-04-23 16:33 37.07169 14.69334 5551 ft 107 kts 23°
2026-04-23 16:33 37.07822 14.69793 5558 ft 109 kts 24°
2026-04-23 16:33 37.08488 14.70263 5558 ft 110 kts 24°
2026-04-23 16:33 37.09149 14.70729 5558 ft 108 kts 24°
2026-04-23 16:34 37.09794 14.71185 5555 ft 106 kts 24°
2026-04-23 16:34 37.10434 14.71636 5553 ft 105 kts 24°
2026-04-23 16:34 37.11067 14.72081 5545 ft 104 kts 24°
2026-04-23 16:34 37.11693 14.72523 5547 ft 103 kts 24°
2026-04-23 16:35 37.12322 14.72967 5547 ft 103 kts 24°
2026-04-23 16:35 37.12952 14.73411 5544 ft 103 kts 24°
2026-04-23 16:35 37.13578 14.73853 5545 ft 104 kts 24°
2026-04-23 16:35 37.14211 14.74299 5547 ft 105 kts 24°
2026-04-23 16:36 37.14846 14.74748 5548 ft 104 kts 24°
2026-04-23 16:36 37.15477 14.75193 5547 ft 104 kts 24°
2026-04-23 16:36 37.16055 14.75726 5542 ft 105 kts 47°
2026-04-23 16:36 37.16432 14.76512 5542 ft 104 kts 52°
2026-04-23 16:37 37.16801 14.77262 5548 ft 99 kts 52°
2026-04-23 16:37 37.17164 14.77998 5550 ft 103 kts 51°
2026-04-23 16:37 37.17545 14.78772 5555 ft 105 kts 52°
2026-04-23 16:37 37.17936 14.79567 5564 ft 109 kts 51°
2026-04-23 16:38 37.18339 14.80388 5565 ft 111 kts 51°
2026-04-23 16:38 37.18740 14.81206 5563 ft 109 kts 52°
2026-04-23 16:38 37.19137 14.82016 5561 ft 109 kts 52°
2026-04-23 16:38 37.19539 14.82832 5562 ft 110 kts 52°
2026-04-23 16:39 37.19939 14.83647 5556 ft 108 kts 51°
2026-04-23 16:39 37.20332 14.84449 5557 ft 108 kts 52°
2026-04-23 16:39 37.20726 14.85251 5556 ft 108 kts 52°
2026-04-23 16:39 37.21117 14.86049 5554 ft 107 kts 51°
2026-04-23 16:40 37.21500 14.86830 5556 ft 106 kts 51°
2026-04-23 16:40 37.21891 14.87623 5554 ft 107 kts 52°
2026-04-23 16:40 37.22282 14.88421 5556 ft 107 kts 52°
2026-04-23 16:40 37.22673 14.89219 5559 ft 108 kts 51°
2026-04-23 16:41 37.23067 14.90024 5559 ft 108 kts 51°
2026-04-23 16:41 37.23462 14.90831 5561 ft 108 kts 52°
2026-04-23 16:41 37.23859 14.91640 5564 ft 109 kts 51°
2026-04-23 16:41 37.24259 14.92457 5568 ft 110 kts 52°
2026-04-23 16:42 37.24662 14.93280 5568 ft 111 kts 52°
2026-04-23 16:42 37.25058 14.94091 5570 ft 110 kts 52°
2026-04-23 16:42 37.25458 14.94909 5570 ft 110 kts 52°
2026-04-23 16:42 37.25862 14.95733 5570 ft 111 kts 52°
2026-04-23 16:43 37.26265 14.96558 5569 ft 111 kts 52°
2026-04-23 16:43 37.26666 14.97378 5572 ft 111 kts 51°
2026-04-23 16:43 37.27071 14.98206 5570 ft 111 kts 52°
2026-04-23 16:43 37.27476 14.99034 5570 ft 111 kts 52°
2026-04-23 16:44 37.27885 14.99856 5571 ft 110 kts 48°
2026-04-23 16:44 37.28478 15.00401 5557 ft 105 kts 24°
2026-04-23 16:44 37.29108 15.00863 5557 ft 106 kts 25°
2026-04-23 16:44 37.29747 15.01338 5557 ft 106 kts 25°
2026-04-23 16:45 37.30385 15.01812 5561 ft 107 kts 25°
2026-04-23 16:45 37.31024 15.02288 5560 ft 106 kts 25°
2026-04-23 16:45 37.31658 15.02760 5558 ft 106 kts 25°
2026-04-23 16:45 37.32288 15.03229 5556 ft 105 kts 25°
2026-04-23 16:46 37.32918 15.03699 5554 ft 105 kts 25°
2026-04-23 16:46 37.33548 15.04167 5553 ft 105 kts 25°
2026-04-23 16:46 37.34178 15.04637 5555 ft 106 kts 25°
2026-04-23 16:46 37.34811 15.05109 5554 ft 105 kts 25°
2026-04-23 16:47 37.35433 15.05572 5554 ft 105 kts 25°
2026-04-23 16:47 37.36059 15.06039 5554 ft 105 kts 26°
2026-04-23 16:47 37.36688 15.06509 5554 ft 106 kts 25°
2026-04-23 16:47 37.37325 15.06984 5554 ft 106 kts 25°
2026-04-23 16:48 37.37745 15.07297 5552 ft 105 kts 25°
2026-04-23 16:48 37.38371 15.07764 5552 ft 105 kts 26°
2026-04-23 16:48 37.38998 15.08232 5552 ft 105 kts 25°
2026-04-23 16:48 37.39644 15.08652 5551 ft 104 kts 16°
2026-04-23 16:49 37.40324 15.08974 5552 ft 105 kts 17°
2026-04-23 16:49 37.41009 15.09309 5554 ft 105 kts 17°
2026-04-23 16:49 37.41692 15.09642 5555 ft 105 kts 17°
2026-04-23 16:49 37.42377 15.09975 5556 ft 105 kts 17°
2026-04-23 16:50 37.43060 15.10307 5555 ft 105 kts 17°
2026-04-23 16:50 37.43744 15.10640 5554 ft 105 kts 17°
2026-04-23 16:50 37.44417 15.10967 5554 ft 105 kts 17°
2026-04-23 16:50 37.45105 15.11302 5555 ft 105 kts 17°
2026-04-23 16:51 37.45778 15.11630 5555 ft 105 kts 17°
2026-04-23 16:51 37.46461 15.11962 5556 ft 105 kts 17°
2026-04-23 16:51 37.47143 15.12294 5555 ft 105 kts 16°
2026-04-23 16:51 37.47821 15.12624 5553 ft 104 kts 17°
2026-04-23 16:52 37.48490 15.12949 5553 ft 103 kts 17°
2026-04-23 16:52 37.49168 15.13279 5554 ft 104 kts 17°
2026-04-23 16:52 37.49843 15.13608 5556 ft 104 kts 17°
2026-04-23 16:52 37.50520 15.13938 5556 ft 105 kts 17°
2026-04-23 16:53 37.51203 15.14270 5555 ft 105 kts 17°
2026-04-23 16:53 37.51884 15.14602 5555 ft 105 kts 17°
2026-04-23 16:53 37.52567 15.14935 5556 ft 105 kts 17°
2026-04-23 16:53 37.53240 15.15263 5556 ft 105 kts 17°
2026-04-23 16:54 37.53925 15.15597 5559 ft 106 kts 17°
2026-04-23 16:54 37.54616 15.15934 5559 ft 107 kts 16°
2026-04-23 16:54 37.55311 15.16273 5559 ft 107 kts 16°
2026-04-23 16:54 37.56000 15.16614 5558 ft 106 kts 19°
2026-04-23 16:55 37.56585 15.17216 5552 ft 109 kts 39°
2026-04-23 16:55 37.57132 15.17882 5553 ft 109 kts 38°
2026-04-23 16:55 37.57682 15.18544 5553 ft 109 kts 38°
2026-04-23 16:55 37.58232 15.19204 5554 ft 109 kts 37°
2026-04-23 16:56 37.58780 15.19862 5555 ft 109 kts 37°
2026-04-23 16:56 37.59321 15.20511 5555 ft 109 kts 38°
2026-04-23 16:56 37.59871 15.21172 5556 ft 109 kts 38°
2026-04-23 16:56 37.60422 15.21834 5556 ft 109 kts 37°
2026-04-23 16:57 37.60976 15.22499 5558 ft 110 kts 38°
2026-04-23 16:57 37.61536 15.23161 5559 ft 109 kts 34°
2026-04-23 16:57 37.62219 15.23463 5552 ft 104 kts
2026-04-23 16:57 37.62936 15.23619 5552 ft 104 kts
2026-04-23 16:58 37.63650 15.23781 5553 ft 104 kts
2026-04-23 16:58 37.64370 15.23945 5555 ft 105 kts
2026-04-23 16:58 37.65093 15.24110 5557 ft 105 kts
2026-04-23 16:58 37.65815 15.24274 5558 ft 106 kts
2026-04-23 16:59 37.66541 15.24440 5552 ft 105 kts
2026-04-23 16:59 37.67257 15.24602 5552 ft 104 kts
2026-04-23 16:59 37.67970 15.24765 5551 ft 104 kts
2026-04-23 16:59 37.68681 15.24927 5553 ft 103 kts
2026-04-23 17:00 37.69372 15.25085 5552 ft 102 kts
2026-04-23 17:00 37.70065 15.25244 5554 ft 100 kts
2026-04-23 17:00 37.70753 15.25399 5555 ft 102 kts
2026-04-23 17:00 37.71459 15.25560 5556 ft 103 kts
2026-04-23 17:01 37.72165 15.25720 5561 ft 103 kts
2026-04-23 17:01 37.72874 15.25882 5567 ft 103 kts
2026-04-23 17:01 37.73588 15.26045 5568 ft 104 kts
2026-04-23 17:01 37.74303 15.26208 5567 ft 104 kts
2026-04-23 17:02 37.75015 15.26371 5568 ft 104 kts
2026-04-23 17:02 37.75739 15.26535 5570 ft 107 kts
2026-04-23 17:02 37.76465 15.26702 5574 ft 105 kts
2026-04-23 17:02 37.77175 15.26863 5573 ft 104 kts
2026-04-23 17:03 37.77889 15.27027 5575 ft 105 kts
2026-04-23 17:03 37.78614 15.27192 5573 ft 107 kts
2026-04-23 17:03 37.79339 15.27359 5575 ft 105 kts
2026-04-23 17:03 37.80057 15.27522 5571 ft 105 kts
2026-04-23 17:04 37.80780 15.27687 5571 ft 105 kts
2026-04-23 17:04 37.81488 15.27850 5567 ft 103 kts
2026-04-23 17:04 37.82188 15.28010 5569 ft 101 kts
2026-04-23 17:04 37.82878 15.28167 5567 ft 101 kts
2026-04-23 17:05 37.83572 15.28326 5563 ft 101 kts
2026-04-23 17:05 37.84267 15.28484 5562 ft 102 kts
2026-04-23 17:05 37.84947 15.28618 5550 ft 94 kts
2026-04-23 17:05 37.85566 15.28853 5580 ft 98 kts 24°
2026-04-23 17:06 37.86127 15.29370 5578 ft 101 kts 28°
2026-04-23 17:06 37.86708 15.29881 5579 ft 100 kts 28°
2026-04-23 17:06 37.87284 15.30385 5580 ft 102 kts 28°
2026-04-23 17:06 37.87868 15.30897 5583 ft 105 kts 28°
2026-04-23 17:07 37.88474 15.31430 5574 ft 107 kts 28°
2026-04-23 17:07 37.89089 15.31970 5578 ft 108 kts 28°
2026-04-23 17:07 37.89709 15.32516 5580 ft 108 kts 28°
2026-04-23 17:07 37.90332 15.33064 5575 ft 109 kts 28°
2026-04-23 17:08 37.90956 15.33613 5572 ft 109 kts 29°
2026-04-23 17:08 37.91558 15.34144 5572 ft 105 kts 28°
2026-04-23 17:08 37.92169 15.34679 5571 ft 108 kts 28°
2026-04-23 17:08 37.92791 15.35226 5573 ft 109 kts 28°
2026-04-23 17:09 37.93418 15.35779 5577 ft 110 kts 28°
2026-04-23 17:09 37.94043 15.36329 5569 ft 109 kts 28°
2026-04-23 17:09 37.94666 15.36877 5567 ft 108 kts 28°
2026-04-23 17:09 37.95282 15.37420 5568 ft 107 kts 28°
2026-04-23 17:10 37.95898 15.37963 5569 ft 108 kts 28°
2026-04-23 17:10 37.96518 15.38509 5569 ft 109 kts 28°
2026-04-23 17:10 37.97126 15.39073 5557 ft 108 kts 33°
2026-04-23 17:10 37.97718 15.39639 5554 ft 106 kts 29°
2026-04-23 17:11 37.98312 15.40194 5556 ft 107 kts 30°
2026-04-23 17:11 37.98900 15.40759 5553 ft 108 kts 33°
2026-04-23 17:11 37.99478 15.41380 5555 ft 109 kts 34°
2026-04-23 17:11 38.00056 15.41999 5553 ft 108 kts 34°
2026-04-23 17:12 38.00630 15.42616 5554 ft 108 kts 34°
2026-04-23 17:12 38.01202 15.43229 5554 ft 108 kts 33°
2026-04-23 17:12 38.01774 15.43842 5552 ft 107 kts 33°
2026-04-23 17:12 38.02345 15.44454 5551 ft 108 kts 34°
2026-04-23 17:13 38.02922 15.45073 5552 ft 109 kts 34°
2026-04-23 17:13 38.03503 15.45695 5553 ft 109 kts 34°
2026-04-23 17:13 38.04077 15.46311 5555 ft 110 kts 34°
2026-04-23 17:13 38.04658 15.46936 5555 ft 109 kts 34°
2026-04-23 17:14 38.05239 15.47559 5554 ft 107 kts 33°
2026-04-23 17:14 38.05811 15.48172 5550 ft 108 kts 34°
2026-04-23 17:14 38.06390 15.48794 5551 ft 110 kts 34°
2026-04-23 17:14 38.06973 15.49421 5551 ft 110 kts 34°
2026-04-23 17:15 38.07556 15.50047 5552 ft 110 kts 34°
2026-04-23 17:15 38.08141 15.50676 5553 ft 110 kts 34°
2026-04-23 17:15 38.08721 15.51299 5553 ft 110 kts 34°
2026-04-23 17:15 38.09307 15.51929 5553 ft 110 kts 34°
2026-04-23 17:16 38.09887 15.52553 5553 ft 110 kts 34°
2026-04-23 17:16 38.10469 15.53179 5552 ft 109 kts 34°
2026-04-23 17:16 38.11051 15.53804 5552 ft 110 kts 35°
2026-04-23 17:16 38.11636 15.54434 5552 ft 110 kts 34°
2026-04-23 17:17 38.12207 15.55049 5552 ft 109 kts 34°
2026-04-23 17:17 38.12783 15.55670 5553 ft 108 kts 33°
2026-04-23 17:17 38.13174 15.56090 5552 ft 109 kts 34°
2026-04-23 17:17 38.13940 15.56915 5551 ft 109 kts 36°
2026-04-23 17:18 38.15099 15.58163 5553 ft 109 kts 36°
2026-04-23 17:18 38.15677 15.58786 5554 ft 109 kts 35°
2026-04-23 17:18 38.16256 15.59410 5555 ft 109 kts 35°
2026-04-23 17:19 38.16835 15.60035 5557 ft 109 kts 34°
2026-04-23 17:19 38.17416 15.60660 5557 ft 110 kts 36°
2026-04-23 17:19 38.17995 15.61285 5559 ft 111 kts 35°
2026-04-23 17:19 38.18578 15.61914 5558 ft 110 kts 35°
2026-04-23 17:20 38.19159 15.62540 5557 ft 109 kts 34°
2026-04-23 17:20 38.20324 15.63797 5558 ft 111 kts 36°
2026-04-23 17:21 38.21502 15.65070 5562 ft 111 kts 35°
2026-04-23 17:21 38.22090 15.65706 5561 ft 110 kts 34°
2026-04-23 17:21 38.23252 15.66960 5560 ft 113 kts 36°
2026-04-23 17:22 38.23854 15.67610 5557 ft 113 kts 37°
2026-04-23 17:22 38.25051 15.68907 5561 ft 113 kts 34°
2026-04-23 17:23 38.26234 15.70187 5554 ft 110 kts 34°
2026-04-23 17:23 38.26816 15.70816 5550 ft 109 kts 36°
2026-04-23 17:23 38.27967 15.72061 5550 ft 109 kts 37°
2026-04-23 17:24 38.28539 15.72681 5551 ft 107 kts 38°
2026-04-23 17:24 38.29107 15.73296 5551 ft 108 kts 37°
2026-04-23 17:24 38.30257 15.74541 5551 ft 109 kts 37°
2026-04-23 17:25 38.31420 15.75801 5555 ft 110 kts 38°
2026-04-23 17:25 38.32003 15.76434 5558 ft 110 kts 37°
2026-04-23 17:26 38.33166 15.77695 5559 ft 110 kts 37°
2026-04-23 17:26 38.34327 15.78954 5561 ft 110 kts 37°
2026-04-23 17:27 38.35491 15.80218 5561 ft 110 kts 38°
2026-04-23 17:27 38.36076 15.80853 5562 ft 110 kts 37°
2026-04-23 17:27 38.36658 15.81485 5562 ft 110 kts 38°
2026-04-23 17:27 38.37244 15.82122 5563 ft 110 kts 37°
2026-04-23 17:28 38.37830 15.82758 5563 ft 110 kts 37°
2026-04-23 17:28 38.38401 15.83379 5561 ft 109 kts 38°
2026-04-23 17:28 38.38978 15.84006 5562 ft 109 kts 37°
2026-04-23 17:28 38.39557 15.84636 5562 ft 109 kts 38°
2026-04-23 17:29 38.40138 15.85268 5562 ft 110 kts 38°
2026-04-23 17:29 38.40720 15.85900 5557 ft 110 kts 38°
2026-04-23 17:29 38.41882 15.87164 5559 ft 110 kts 37°
2026-04-23 17:30 38.42270 15.87587 5560 ft 110 kts 37°
2026-04-23 17:30 38.43638 15.89077 5561 ft 111 kts 37°
2026-04-23 17:30 38.44227 15.89717 5561 ft 111 kts 37°
2026-04-23 17:31 38.44853 15.90267 5564 ft 109 kts 32°
2026-04-23 17:31 38.45475 15.90827 5565 ft 110 kts 33°
2026-04-23 17:31 38.46091 15.91379 5563 ft 110 kts 33°
2026-04-23 17:31 38.46717 15.91937 5564 ft 109 kts 32°
2026-04-23 17:32 38.47342 15.92493 5560 ft 109 kts 32°
2026-04-23 17:32 38.47962 15.93045 5563 ft 108 kts 32°
2026-04-23 17:32 38.48576 15.93590 5564 ft 106 kts 32°
2026-04-23 17:32 38.49177 15.94125 5566 ft 104 kts 31°
2026-04-23 17:33 38.49774 15.94655 5562 ft 105 kts 32°
2026-04-23 17:33 38.50375 15.95189 5563 ft 105 kts 32°
2026-04-23 17:33 38.50976 15.95724 5564 ft 105 kts 33°
2026-04-23 17:33 38.51570 15.96252 5566 ft 103 kts 31°
2026-04-23 17:34 38.52150 15.96768 5563 ft 104 kts 32°
2026-04-23 17:34 38.52746 15.97298 5561 ft 104 kts 33°
2026-04-23 17:34 38.53928 15.98350 5563 ft 102 kts 31°
2026-04-23 17:35 38.54523 15.98879 5558 ft 105 kts 32°
2026-04-23 17:35 38.55540 15.99784 5443 ft 113 kts 30°
2026-04-23 17:35 38.56196 16.00369 5328 ft 118 kts 30°
2026-04-23 17:36 38.56884 16.00981 5210 ft 123 kts 31°
2026-04-23 17:36 38.57816 16.01815 5051 ft 123 kts 31°
2026-04-23 17:36 38.58516 16.02439 4928 ft 124 kts 31°
2026-04-23 17:36 38.59226 16.03071 4803 ft 125 kts 31°
2026-04-23 17:37 38.59707 16.03501 4716 ft 125 kts 31°
2026-04-23 17:37 38.60421 16.04138 4584 ft 125 kts 31°
2026-04-23 17:37 38.61833 16.05398 4330 ft 124 kts 28°
2026-04-23 17:38 38.62536 16.06026 4200 ft 123 kts 27°
2026-04-23 17:38 38.63233 16.06649 4072 ft 121 kts 29°
2026-04-23 17:38 38.63920 16.07261 3945 ft 124 kts 30°
2026-04-23 17:38 38.64637 16.07901 3816 ft 127 kts 28°
2026-04-23 17:39 38.65362 16.08550 3694 ft 127 kts 27°
2026-04-23 17:39 38.66091 16.09202 3572 ft 127 kts 27°
2026-04-23 17:39 38.66794 16.09831 3446 ft 122 kts 29°
2026-04-23 17:39 38.67493 16.10455 3303 ft 123 kts 30°
2026-04-23 17:40 38.68191 16.11080 3175 ft 120 kts 32°
2026-04-23 17:40 38.68851 16.11670 3049 ft 116 kts 32°
2026-04-23 17:40 38.69503 16.12255 2915 ft 113 kts 32°
2026-04-23 17:40 38.70145 16.12829 2792 ft 113 kts 31°
2026-04-23 17:41 38.70792 16.13407 2666 ft 114 kts 31°
2026-04-23 17:41 38.72109 16.14587 2404 ft 116 kts 31°
2026-04-23 17:41 38.72773 16.15182 2277 ft 116 kts 29°
2026-04-23 17:42 38.74086 16.16360 2021 ft 115 kts 31°
2026-04-23 17:42 38.74735 16.16941 1888 ft 114 kts 30°
2026-04-23 17:42 38.75385 16.17523 1761 ft 113 kts 30°
2026-04-23 17:43 38.76023 16.18096 1629 ft 111 kts 30°
2026-04-23 17:43 38.76654 16.18661 1497 ft 110 kts 30°
2026-04-23 17:43 38.77288 16.19229 1368 ft 112 kts 29°
2026-04-23 17:43 38.77910 16.19789 1325 ft 106 kts 30°
2026-04-23 17:44 38.78511 16.20328 1316 ft 104 kts 30°
2026-04-23 17:44 38.79091 16.20849 1315 ft 100 kts 31°
2026-04-23 17:44 38.80286 16.21700 1312 ft 99 kts
2026-04-23 17:45 38.80959 16.21735 1314 ft 96 kts
2026-04-23 17:45 38.82280 16.21814 1317 ft 96 kts
2026-04-23 17:45 38.82966 16.21832 1320 ft 99 kts
2026-04-23 17:46 38.84328 16.21882 1329 ft 96 kts
2026-04-23 17:46 38.84988 16.21932 1327 ft 94 kts
2026-04-23 17:46 38.85642 16.21978 1319 ft 94 kts
2026-04-23 17:47 38.86221 16.22308 1306 ft 94 kts 48°
2026-04-23 17:47 38.86530 16.23031 1304 ft 99 kts 81°
2026-04-23 17:47 38.86254 16.24817 1318 ft 103 kts 92°
2026-04-23 17:48 38.86105 16.25734 1324 ft 106 kts 93°
2026-04-23 17:48 38.85934 16.26671 1329 ft 109 kts 97°
2026-04-23 17:48 38.85914 16.27616 1332 ft 106 kts 77°
2026-04-23 17:48 38.85953 16.28549 1328 ft 103 kts 79°
2026-04-23 17:49 38.85974 16.29466 1316 ft 102 kts 74°
2026-04-23 17:49 38.86082 16.30357 1323 ft 102 kts 78°
2026-04-23 17:49 38.86188 16.31264 1332 ft 106 kts 74°
2026-04-23 17:49 38.86292 16.32221 1330 ft 110 kts 74°
2026-04-23 17:50 38.86397 16.33199 1331 ft 111 kts 73°
2026-04-23 17:50 38.86668 16.35157 1315 ft 110 kts 78°
2026-04-23 17:50 38.87124 16.35878 1323 ft 108 kts 14°
2026-04-23 17:51 38.87869 16.35896 1327 ft 106 kts
2026-04-23 17:51 38.88611 16.35898 1330 ft 107 kts
2026-04-23 17:51 38.89272 16.34703 1299 ft 103 kts 263°
2026-04-23 17:52 38.89499 16.33353 1203 ft 80 kts 274°
2026-04-23 17:52 38.89591 16.32692 1061 ft 72 kts 268°
2026-04-23 17:53 38.89731 16.31457 907 ft 69 kts 268°
2026-04-23 17:53 38.89769 16.30852 795 ft 66 kts 279°
2026-04-23 17:53 38.89841 16.30284 737 ft 64 kts 275°
2026-04-23 17:54 38.89899 16.29727 626 ft 63 kts 277°
2026-04-23 17:54 38.89961 16.29181 560 ft 60 kts 277°
2026-04-23 17:54 38.90095 16.28026 408 ft 67 kts 281°
2026-04-23 17:55 38.90221 16.26949 249 ft 60 kts 280°
2026-04-23 17:55 38.90285 16.26402 165 ft 62 kts 280°
2026-04-23 17:55 38.90348 16.25869 81 ft 58 kts 281°
2026-04-23 17:56 38.90402 16.25404 31 ft 45 kts 281°
2026-04-23 17:56 38.90465 16.24885 30 ft 11 kts 310°
2026-04-23 17:56 38.90520 16.24893 31 ft 7 kts 56°
2026-04-23 17:57 38.90539 16.24948 32 ft 6 kts 63°
2026-04-23 17:57 38.90556 16.24993 32 ft 5 kts 61°
2026-04-23 17:57 38.90665 16.25003 28 ft 15 kts 308°
2026-04-23 17:58 38.90688 16.24870 27 ft 16 kts 279°
2026-04-23 17:58 38.90705 16.24727 27 ft 16 kts 277°
2026-04-23 17:58 38.90742 16.24602 27 ft 14 kts 322°
2026-04-23 17:58 38.90802 16.24526 27 ft 11 kts 280°
2026-04-23 17:59 38.90816 16.24400 27 ft 19 kts 278°
2026-04-23 17:59 38.90836 16.24236 27 ft 17 kts 278°
2026-04-23 17:59 38.90851 16.24109 27 ft 12 kts 278°
2026-04-23 17:59 38.90882 16.24103 27 ft 5 kts
2026-04-23 18:00 38.90911 16.24108 27 ft 4 kts
2026-04-23 18:00 38.90935 16.24113 27 ft 3 kts
2026-04-23 18:00 38.90944 16.24114 27 ft 0 kts